HADYOS Weather Reports


time (UTC)temp
F
wind
direction
speed
knots
gust
knots
rain 1hr
in
rain 24hr
in
rain mn
in
humidity
%
barometer
mb
20260505152705 60 67 4.3 19.1 0.00 0.00 0.00 59 1014.9
20260505151805 61 79 4.3 13.9 0.00 0.00 0.00 55 1014.7
20260505150903 61 48 4.3 13.9 0.00 0.00 0.00 53 1014.5
20260505124503 65 81 4.3 13.0 0.00 0.00 0.00 46 1014.6
20260505123605 65 31 4.3 13.0 0.00 0.00 0.00 47 1015.1
20260505122703 66 94 3.5 15.6 0.00 0.00 0.00 45 1015.1
20260505121805 66 80 3.5 11.3 0.00 0.00 0.00 45 1015.4
20260505120903 67 85 2.6 8.7 0.00 0.00 0.00 44 1015.8
20260505120004 67 28 3.5 11.3 0.00 0.00 0.00 44 1015.8
20260505115405 67 47 2.6 10.4 0.00 0.00 0.00 43 1015.7
20260505114503 67 80 1.7 7.8 0.00 0.00 0.00 44 1016.0
20260505113605 66 101 1.7 7.0 0.00 0.00 0.00 45 1016.0
20260505112703 65 351 3.5 10.4 0.00 0.00 0.00 46 1016.1
20260505111805 66 357 2.6 11.3 0.00 0.00 0.00 45 1016.0
20260505110903 66 53 0.9 7.8 0.00 0.00 0.00 47 1016.1
20260505101803 65 24 2.6 7.8 0.00 0.00 0.00 49 1016.5
20260505100903 65 344 3.5 11.3 0.00 0.00 0.00 49 1016.4
20260505100005 66 348 2.6 10.4 0.00 0.00 0.00 46 1016.1
20260505095616 66 357 2.6 7.8 0.00 0.00 0.00 45 1016.3
20260505094505 66 8 2.6 11.3 0.00 0.00 0.00 44 1016.5
20260505093603 66 43 1.7 6.1 0.00 0.00 0.00 43 1016.5
20260505092705 66 50 1.7 7.8 0.00 0.00 0.00 43 1016.5
20260505091803 67 78 1.7 6.1 0.00 0.00 0.00 40 1016.5
20260505090903 67 77 1.7 8.7 0.00 0.00 0.00 40 1016.4
20260505090005 66 74 1.7 7.0 0.00 0.00 0.00 39 1016.3
20260505085403 66 89 1.7 6.1 0.00 0.00 0.00 42 1016.3
20260505084505 66 56 1.7 10.4 0.00 0.00 0.00 45 1016.4
20260505083604 65 90 1.7 7.0 0.00 0.00 0.00 46 1016.4
20260505082706 65 90 0.9 8.7 0.00 0.00 0.00 47 1016.5
20260505081804 64 86 1.7 8.7 0.00 0.00 0.00 49 1016.5
20260505080903 64 68 1.7 8.7 0.00 0.00 0.00 48 1016.7
20260505080005 66 57 1.7 9.6 0.00 0.00 0.00 47 1016.6
20260505075403 66 56 1.7 9.6 0.00 0.00 0.00 47 1016.5
20260505074503 65 88 1.7 7.8 0.00 0.00 0.00 48 1016.3
20260505073603 65 84 1.7 7.8 0.00 0.00 0.00 49 1016.4
20260505072914 64 70 2.6 9.6 0.00 0.00 0.00 48 1016.5
20260505071803 64 47 0.9 6.1 0.00 0.00 0.00 48 1016.5
20260505070903 63 79 1.7 10.4 0.00 0.00 0.00 51 1016.7
20260505070216 63 76 1.7 10.4 0.00 0.00 0.00 54 1016.7
20260505065404 63 89 1.7 8.7 0.00 0.00 0.00 55 1016.6
20260505064503 63 47 0.9 5.2 0.00 0.00 0.00 54 1016.6
20260505063603 62 107 1.7 7.8 0.00 0.00 0.00 55 1016.5
20260505062703 61 105 0.9 6.1 0.00 0.00 0.00 55 1016.4
20260505061804 61 81 1.7 7.8 0.00 0.00 0.00 55 1016.3
20260505060903 62 75 0.9 5.2 0.00 0.00 0.00 55 1016.4
20260505060217 61 337 0.9 6.1 0.00 0.00 0.00 57 1016.5
20260505055404 61 351 0.9 7.0 0.00 0.00 0.00 58 1016.3
20260505054503 60 56 0.9 7.0 0.00 0.00 0.00 59 1016.2
20260505053604 59 336 0.9 9.6 0.00 0.00 0.00 61 1016.1
20260505052703 59 89 1.7 7.0 0.00 0.00 0.00 63 1016.0
20260505051803 59 54 2.6 11.3 0.00 0.00 0.00 61 1016.1
20260505050904 59 98 1.7 9.6 0.00 0.00 0.00 62 1016.1
20260505040904 56 349 0.9 6.1 0.00 0.00 0.00 68 1015.8
20260505040005 56 353 0.9 6.1 0.00 0.00 0.00 69 1015.7
20260505035403 56 112 0.0 6.1 0.00 0.00 0.00 70 1015.7
20260505034504 55 338 0.9 6.1 0.00 0.00 0.00 71 1015.6
20260505033604 54 42 0.0 3.5 0.00 0.00 0.00 72 1015.4
20260505032703 54 99 0.9 6.1 0.00 0.00 0.00 72 1015.4
20260505031803 54 74 0.9 6.1 0.00 0.00 0.00 72 1015.3
20260505030904 53 21 0.9 4.3 0.00 0.00 0.00 73 1015.3
20260505030007 53 60 0.9 4.3 0.00 0.00 0.00 73 1015.3
20260505025404 53 86 0.9 5.2 0.00 0.00 0.00 73 1015.3
20260505024505 53 77 0.9 5.2 0.00 0.00 0.00 74 1015.3
20260505023604 53 91 0.9 6.1 0.00 0.00 0.00 74 1015.2
20260505022705 53 84 0.9 7.8 0.00 0.00 0.00 74 1015.2
20260505022014 53 82 0.9 6.1 0.00 0.00 0.00 74 1015.3
20260505020904 54 68 0.9 5.2 0.00 0.00 0.00 74 1015.4
20260505020007 54 77 0.9 5.2 0.00 0.00 0.00 74 1015.5
20260505015404 54 97 0.0 4.3 0.00 0.00 0.00 74 1015.5
20260505014504 54 108 0.9 6.1 0.00 0.00 0.00 74 1015.6
20260505013604 54 77 0.9 6.1 0.00 0.00 0.00 74 1015.6
20260505012704 54 75 0.9 5.2 0.00 0.00 0.00 75 1015.6
20260505011804 54 80 0.0 2.6 0.00 0.00 0.00 75 1015.6
20260505010903 54 60 0.9 4.3 0.00 0.00 0.00 76 1015.6
20260505010004 54 87 0.9 6.1 0.00 0.00 0.00 76 1015.6
20260505005616 54 85 0.9 6.1 0.00 0.00 0.00 76 1015.5
20260505004713 54 40 0.9 4.3 0.00 0.00 0.00 75 1015.6
20260505003603 54 51 0.9 7.0 0.00 0.00 0.00 75 1015.6
20260505002703 55 89 0.9 5.2 0.00 0.00 0.00 73 1015.6
20260505001803 55 51 0.0 2.6 0.00 0.00 0.00 72 1015.9
20260505000903 55 132 0.0 1.7 0.00 0.00 0.00 72 1015.8
20260505000004 55 76 0.9 5.2 0.00 0.00 0.00 72 1015.7
20260504235617 55 66 0.9 5.2 0.00 0.00 0.00 72 1015.7
20260504234503 55 326 0.9 7.8 0.00 0.00 0.00 71 1015.8
20260504233603 55 3 0.9 5.2 0.00 0.00 0.00 71 1016.0
20260504232703 55 87 1.7 9.6 0.00 0.00 0.00 70 1015.9
20260504231803 55 81 2.6 7.8 0.00 0.00 0.00 70 1015.5
20260504230903 55 96 1.7 7.0 0.00 0.00 0.00 70 1015.4
20260504230004 55 105 2.6 13.0 0.00 0.00 0.00 70 1015.4
20260504225403 55 99 2.6 13.0 0.00 0.00 0.00 69 1015.5
20260504224503 55 101 2.6 8.7 0.00 0.00 0.00 68 1015.5
20260504223603 55 105 2.6 9.6 0.00 0.00 0.00 67 1015.6
20260504222703 55 98 2.6 7.8 0.00 0.00 0.00 68 1015.9
20260504222017 55 102 2.6 10.4 0.00 0.00 0.00 68 1016.2
20260504221114 55 95 2.6 7.0 0.00 0.00 0.00 69 1016.3
20260504220004 55 110 2.6 8.7 0.00 0.00 0.00 70 1016.4
20260504215403 55 118 1.7 4.3 0.00 0.00 0.00 70 1016.4
20260504214503 55 112 1.7 7.0 0.00 0.00 0.00 70 1016.6
20260504213603 55 94 1.7 9.6 0.00 0.00 0.00 69 1016.6
20260504212915 55 76 2.6 11.3 0.00 0.00 0.00 69 1016.8
20260504211803 55 97 2.6 10.4 0.00 0.00 0.00 71 1016.6
20260504210903 55 95 1.7 10.4 0.00 0.00 0.00 72 1017.0
20260504210006 55 90 2.6 10.4 0.00 0.00 0.00 72 1016.8
20260504205614 56 88 2.6 10.4 0.00 0.00 0.00 72 1016.9
20260504204503 56 96 1.7 8.7 0.00 0.00 0.00 72 1016.9
20260504203603 56 98 1.7 6.1 0.00 0.00 0.00 72 1017.1
20260504202703 56 116 1.7 6.1 0.00 0.00 0.00 71 1017.3
20260504201803 56 99 1.7 7.0 0.00 0.00 0.00 71 1017.3
20260504201116 56 87 0.9 6.1 0.00 0.00 0.00 71 1017.3
20260504200218 56 60 0.9 7.0 0.00 0.00 0.00 71 1017.5
20260504195403 56 70 0.9 7.0 0.00 0.00 0.00 71 1017.5
20260504194503 56 82 0.9 6.1 0.00 0.00 0.00 71 1017.5
20260504193814 56 34 1.7 6.1 0.00 0.00 0.00 71 1017.4
20260504192917 56 70 0.9 5.2 0.00 0.00 0.00 72 1017.7
20260504191803 56 112 0.9 4.3 0.00 0.00 0.00 71 1017.7
20260504190903 56 67 0.9 5.2 0.00 0.00 0.00 72 1017.6
20260504190004 56 61 0.9 9.6 0.00 0.00 0.00 72 1017.6
20260504185615 56 63 0.9 9.6 0.00 0.00 0.00 72 1017.5
20260504184503 56 98 1.7 7.0 0.00 0.00 0.00 71 1017.3
20260504183603 56 79 0.9 4.3 0.00 0.00 0.00 72 1017.3
20260504182703 56 351 1.7 8.7 0.00 0.00 0.00 72 1017.3
20260504181804 56 354 2.6 9.6 0.00 0.00 0.00 73 1017.2
20260504180905 57 14 2.6 8.7 0.00 0.00 0.00 73 1017.0
20260504180005 57 353 2.6 9.6 0.00 0.00 0.00 73 1017.2
20260504175405 57 349 1.7 7.8 0.00 0.00 0.00 71 1017.2
20260504174505 57 345 2.6 8.7 0.00 0.00 0.00 71 1017.2
20260504173605 58 332 1.7 10.4 0.00 0.00 0.00 71 1017.1
20260504172705 58 354 2.6 8.7 0.00 0.00 0.00 71 1016.6
20260504171803 58 21 0.9 4.3 0.00 0.00 0.00 70 1016.8
20260504170903 58 354 1.7 9.6 0.00 0.00 0.00 69 1016.7